Location: Alafon
(8.4500°N, 4.2333°E)
Time: 01:18:11
(UTC+00:00)

Cosmos 2266 Rocket - Pass Details

Date: 05 July 2020
Orbit: 935 x 1007 km, 82.9° (Epoch: 06 August)

Event Time Altitude Azimuth Distance (km) Brightness Sun altitude
Rises 18:23:20 0° 177° (S) 3,585 6.7 -4.8°
Reaches altitude 10° 18:25:49 10° 174° (S) 2,640 6.0 -5.4°
Maximum altitude 18:31:47 67° 93° (E) 1,013 3.9 -6.7°
Drops below altitude 10° 18:37:46 10° 11° (N) 2,657 6.5 -8.1°
Sets 18:40:17 0° 9° (N) 3,609 7.2 -8.6°
